This is the latest recevied weather packets stored in our database for station/object KB2KRJ. If no packets are shown the sender has not sent any weather packets the latest 10 day(s).
| Time | Temp. | Humidity | Pressure | Rain* | Wind** | Luminosity | Snow |
|---|---|---|---|---|---|---|---|
| 1777329013 | 20.56° C | 35% | 1022.2 hPa | 0 mm | - | - | - |
| 1777327211 | 21.11° C | 34% | 1022.4 hPa | 0 mm | - | - | - |
| 1777321809 | 22.78° C | 31% | 1022.6 hPa | 0 mm | - | - | - |
| 1777318261 | 22.78° C | 36% | 1023 hPa | 0 mm | - | - | - |
| 1777314656 | 22.22° C | 35% | 1023.3 hPa | 0 mm | - | - | - |
| 1777305644 | 20° C | 39% | 1024.9 hPa | 0 mm | - | - | - |
| 1777303839 | 20° C | 45% | 1025.2 hPa | 0 mm | - | - | - |
| 1777302035 | 18.33° C | 44% | 1025.3 hPa | 0 mm | - | - | - |
| 1777289444 | 5° C | 39% | 1025.3 hPa | 0 mm | - | - | - |
| 1777286740 | 3.89° C | 44% | 1024.9 hPa | 0 mm | - | - | - |
| 1777284938 | 3.89° C | 46% | 1024.7 hPa | 0 mm | - | - | - |
| 1777283136 | 3.89° C | 45% | 1024.5 hPa | 0 mm | - | - | - |
| 1777278629 | 3.33° C | 48% | 1024.2 hPa | 0 mm | - | - | - |
| 1777277731 | 3.33° C | 50% | 1024.1 hPa | 0 mm | - | - | - |
| 1777276836 | 3.33° C | 51% | 1024.1 hPa | 0 mm | - | - | - |
| 1777272314 | 3.89° C | 57% | 1023.1 hPa | 0 mm | - | - | - |
| 1777269607 | 4.44° C | 62% | 1022.7 hPa | 0 mm | - | - | - |
| 1777268704 | 5° C | 64% | 1022.7 hPa | 0 mm | - | - | - |
| 1777259753 | 7.22° C | 69% | 1022.3 hPa | 0 mm | - | - | - |
| 1777249838 | 11.67° C | 56% | 1020.7 hPa | 0 mm | - | - | - |
| 1777248938 | 12.78° C | 54% | 1020.5 hPa | 0 mm | - | - | - |
| 1777244441 | 16.11° C | 39% | 1019.9 hPa | 0 mm | - | - | - |
| 1777239032 | 17.22° C | 38% | 1019.7 hPa | 0 mm | - | - | - |
| 1777237232 | 17.22° C | 37% | 1019.5 hPa | 0 mm | - | - | - |
| 1777227322 | 16.67° C | 45% | 1020.2 hPa | 0 mm | - | - | - |
* Rain latest hour (hover to see other rain measurements)
** Current wind speed in m/s (hover to see current wind gust speed)